Regional Weather Roundup
Issued by NWS Upton, NY

Current Version | Previous Version | Text Only | Print | Product List | Glossary On
Versions: 1 2 3 4 5 6 7 8 9 10 11 12 13 14 15 16 17 18 19 20 21 22 23 24 25 26 27 28 29 30 31 32 33 34 35 36 37 38 39 40 41 42 43 44 45 46 47 48 49 50
000 ASUS41 KOKX 160409 RWROKX REGIONAL WEATHER ROUNDUP NATIONAL WEATHER SERVICE NEW YORK NY 1200 AM EDT WED AUG 16 2017 NOTE: "FAIR" INDICATES FEW OR NO CLOUDS BELOW 12,000 FEET WITH NO SIGNIFICANT WEATHER AND/OR OBSTRUCTIONS TO VISIBILITY. NYZ071-072-176-178-NJZ106-104-160500- NEW YORK CITY METRO AREA CITY SKY/WX TMP DP RH WIND PRES REMARKS Central Park CLEAR 71 69 93 CALM 29.93F FOG Bronx Bot Gard N/A 70 68 94 E2 29.92F LaGuardia APRT MOCLDY 73 71 93 S5 29.90F Kennedy INTL PTCLDY 72 72 100 S6 29.92S Breezy Point N/A 72 N/A N/A SE5 N/A Newark/Liberty PTCLDY 72 70 93 S3 29.90F Teterboro CLEAR 71 69 93 SW5 29.89F $$ NYZ177-179-078>081-160500- LONG ISLAND NEW YORK CITY SKY/WX TMP DP RH WIND PRES REMARKS Jones Beach N/A 72 N/A N/A S3 N/A Matinecock PT N/A 70 N/A N/A SW3 N/A Farmingdale MOCLDY 71 69 93 CALM 29.91S MacArthur/ISP MOCLDY 71 69 93 CALM 29.90F Shirley CLOUDY 70 69 97 CALM 29.91F Mt Sinai Harb N/A N/A N/A N/A S2 N/A Westhampton CLOUDY 68 65 90 CALM 29.92F East Hampton CLOUDY 65 64 97 CALM 29.90F Montauk N/A 69 67 93 CALM 29.92S $$ NYZ052-065-067-160500- HUDSON VALLEY CITY SKY/WX TMP DP RH WIND PRES REMARKS White Plains FOG 69 68 96 CALM 29.91F VSB 1 Larchmont Harb N/A 72 N/A N/A SE5 N/A Croton On Huds N/A 72 N/A N/A S3 N/A Newburgh PTCLDY 70 68 94 CALM 29.93S Montgomery MOCLDY 68 67 96 CALM 29.91R FOG Poughkeepsie PTCLDY 67 66 97 SE3 29.88S FOG Albany PTCLDY 65 62 90 W3 29.89S $$ NJZ001-105-106-008-010-013-015-019>022-104-160500- NEW JERSEY CITY SKY/WX TMP DP RH WIND PRES REMARKS Newark/Liberty PTCLDY 72 70 93 S3 29.90F Teterboro CLEAR 71 69 93 SW5 29.89F Caldwell CLEAR 70 70 100 CALM 29.91F FOG Somerville FOG 68 68 100 CALM 29.90F VSB 1/4 Linden CLOUDY 73 70 91 CALM 29.92S Perth Amboy N/A 72 N/A N/A SE5 N/A Sussex CLOUDY 69 68 96 CALM 29.92S Andover N/A 67 66 97 CALM 29.93S Trenton CLOUDY 71 71 100 CALM 29.92S FOG Millville FOG 75 75 100 CALM 29.91S VSB 1/2 Atlantic City CLOUDY 73 73 100 CALM 29.90S FOG Wrightstown CLOUDY 73 73 98 CALM 29.89R Toms River CLOUDY 73 72 96 CALM 29.92S Belmar CLOUDY 73 72 96 CALM 29.93S $$ PAZ047>061-062-071-160500- EASTERN PENNSYLVANIA CITY SKY/WX TMP DP RH WIND PRES REMARKS Philadelphia CLOUDY 74 72 93 N6 29.92S Allentown PTCLDY 69 66 90 CALM 29.93S FOG Scranton MOCLDY 67 65 93 E3 29.96R FOG $$ CTZ002-004>006-009-010-012-RIZ004-006-007-MAZ004-011-015-160500- SOUTHERN NEW ENGLAND IN CT CITY SKY/WX TMP DP RH WIND PRES REMARKS Bradley INTL MOCLDY 68 67 96 S7 29.88F Hartford MOCLDY 70 68 93 CALM 29.89S Danbury PTCLDY 67 66 97 CALM 29.91F FOG Wtrbury/Oxford CLOUDY 69 68 96 SW6 29.92F FOG Norwalk Harbor N/A 70 N/A N/A S5 N/A Bridgeport PTCLDY 72 69 90 SW5 29.90F Meriden MOCLDY 67 66 97 CALM 29.89F New Haven CLEAR 70 67 90 CALM 29.89F Chester NOT AVBL Groton PTCLDY 68 66 93 SW5 29.88F Wilimantic MOCLDY 67 67 100 CALM 29.89F IN RI CITY SKY/WX TMP DP RH WIND PRES REMARKS Providence PTCLDY 67 67 100 VRB3 29.89F Block Island FOG 67 66 97 W3 29.91S VSB 1 Westerly PTCLDY 66 64 93 CALM 29.90F IN MA CITY SKY/WX TMP DP RH WIND PRES REMARKS Boston PTCLDY 69 65 86 SW8 29.87F Worcester CLOUDY 67 64 90 SW12 29.91S Westfield CLEAR 67 67 100 CALM 29.88F FOG Provincetown PTCLDY 67 65 93 SW8 29.89S Nantucket FOG 66 66 100 SW3 29.88F VSB 1/4 $$ ANZ330-335-338-340-345-350-353-355-160500- COASTAL MARINE OBSERVATIONS STATION/POSITION TIME SKY/WX TEMP WIND PRES VSBY WAVE AIR SEA DIR/SP/G HT/PER (UTC) (F) (DEG/KT/KT) (MB) (MI) (FT/S) NY HARB ENTRANCE 0250 74 75 140/ 4/ 6 1012.4 4/11 GREAT SOUTH BAY 0330 72 77 310/ 2/ 4 N/A 23 SSW MONTAUK P 0250 71 70 1012.9 4/12 15 E BARNEGAT LI 0330 76 N/A 5/13 HUDSON CANYON 0350 72 74 50/ 4/ 6 1011.3 7/12 KINGS POINT 0348 71 74 190/ 4/ 5 1012.5 EXECUTION ROCKS NOT AVBL WESTERN LI SOUND NOT AVBL CENTRAL LI SOUND NOT AVBL EASTERN LI SOUND NOT AVBL ROBBINS REEF 0348 190/ 6/ 6 1013.2 $$ >>>>>>>>>>>>>>>>>>>>>>>>>>>> KEY <<<<<<<<<<<<<<<<<<<<<<<<<<< > < > SKY/WX - Sky Condition/Present Weather < > TMP - Temperature in Fahrenheit < > DP - Dew Point in Fahrenheit < > RH - Relative Humidity in Percent < > WIND - Direction (from) and Speed in MPH < > PRES - Mean Sea Level Pressure (inches of Hg) < > WCI - Wind Chill Index < > VSB - VISIBILITY IN MILES < > HX - HEAT INDEX < > TC - TEMPERATURE IN CELSIUS < > VRB - VARIABLE WIND DIRECTION < > < >>>>>>>>>>>>>>>>>>>>>>>>>>>> KEY <<<<<<<<<<<<<<<<<<<<<<<<<<<

USA.gov is the U.S. government's official web portal to all federal, state and local government web resources and services.